Reflectivity
12 17 12 15 10 9 -15 -20 -15 18 20 6 -18 10 21 2 -18 -20 -20 -20 -20 -20 -20 -20 2 -4 -18 -20 -20 -20 -20 -20 -20 -3 2 -9 -20 -20 -20 -20 -20 -20 -20 -20 -20 -20 -20
-11 13 16 15 16 15 16 -5 -10 12 29 22 22 11 10 -3 -8 -20 -3 -20 -20 -20 -20 -20 -20 -2 -20 -20 -20 -20 -20 -20 -20 -9 12 -3 -20 -20 -20 -20 -20 -20 -20 -20 -20 -20 -20
-20 -20 -19 -2 16 5 17 16 6 -20 -1 26 18 22 -20 18 12 -14 -5 -20 1 -20 -20 -20 -20 -20 -20 -20 -20 -20 -20 -20 -20 -20 -20 -18 -3 -20 7 -20 -20 -20 -20 -20 -20 -20 -20
-20 -20 -20 -18 -20 17 9 7 10 10 -20 7 32 23 -13 20 10 -4 -20 -20 -10 -17 -20 -20 -13 -20 -20 -20 -20 -20 -20 -20 -20 -20 -20 -20 -20 -20 -20 -20 -20 0 -20 -20 -20 -20 -20
-20 -20 -17 15 -2 -3 13 7 10 -2 -2 6 14 33 20 21 21 19 -20 -20 19 -20 -20 -9 -20 -20 -20 -20 -20 -20 -20 -20 -20 -20 -20 -20 -20 -20 -20 0 -12 -10 -20 -20 -20 -20 -20
-16 -11 4 14 -20 -8 15 15 17 -20 -16 11 -6 19 22 22 25 24 -17 -20 13 -20 -20 16 -20 -19 -20 -20 -20 -20 -20 -20 -20 -20 -20 -20 -20 -20 -2 1 -20 -20 -20 -20 -20 -20 -20
-10 11 5 -20 -20 -14 20 12 6 19 -20 10 11 10 34 24 26 19 11 -20 -16 -20 -20 -20 -20 -20 -20 -20 -20 -20 -20 -20 -20 -20 -20 -20 -20 -20 -20 -20 -20 -20 -18 -20 -20 -20 -20
-12 5 -11 -8 -8 -16 6 10 10 8 18 -1 13 7 25 16 26 21 -15 -20 -20 -20 -20 -20 -20 -20 -20 -20 -20 -20 -20 -20 -20 -20 -20 -20 -13 -20 -20 -20 -20 -20 -17 -19 -20 -20 -20
-18 7 5 -14 -7 -4 -1 14 20 18 17 6 16 5 15 32 33 32 -1 19 -20 -20 -20 -20 -20 -20 -20 -20 -20 -20 -20 -20 -20 -20 -20 -20 -20 -20 -20 -20 -20 -20 -20 -20 -20 -20 -20
13 -20 -16 -20 -20 -20 -18 -15 19 21 22 19 -19 -19 4 36 35 29 25 -10 -20 -20 -20 -20 -10 -20 -20 7 -17 -20 -20 -20 -20 -20 -20 -20 -20 -20 -20 -20 -20 -20 -20 -20 -20 -2 -7
-20 -20 14 -15 18 -8 19 13 23 17 17 12 -20 -20 -16 27 34 29 16 24 -20 -20 -20 -20 -3 -20 10 -18 -20 -20 -20 -19 -6 -20 -20 -20 -20 -20 -20 -20 -20 -17 -20 -20 -20 -6 -14
-20 -15 6 -15 -20 -16 -20 21 13 8 10 5 -0 -20 -5 18 40 33 21 5 -16 -20 -20 -9 -6 6 7 -5 5 -15 -11 6 -15 10 -7 -20 -20 -20 -20 -20 -20 -13 -2 -1 -12 -1 7
-8 1 13 3 17 2 11 13 14 34 30 25 5 -20 3 21 40 35 31 19 -19 -20 -20 -13 -11 2 0 -12 0 6 6 9 7 7 3 5 -5 -13 -19 -20 -20 15 28 9 10 10 -15
14 14 8 -11 17 -20 -8 5 30 34 24 27 27 11 -9 23 38 38 29 10 -20 -20 -20 -20 -19 0 -12 -5 -20 -20 10 7 14 1 8 -9 -20 -5 -20 -20 -20 -20 15 16 -2 -20 -20
6 16 4 16 -20 10 -20 -11 25 28 21 26 23 16 19 27 41 41 28 4 -20 -20 -20 -20 -11 -20 -3 -20 -11 4 3 -20 -20 -6 -2 -15 -20 -20 -20 -20 -20 7 5 3 14 12 15
20 16 14 17 4 -8 -18 -8 2 24 32 21 21 21 24 37 35 40 20 -20 -20 -20 -20 -20 -20 -20 -20 -20 -20 -17 -4 -20 -15 -20 -20 -12 -12 -20 -20 -20 -16 -4 -10 2 17 20 10
10 15 17 -20 -20 -20 -20 4 12 23 39 29 17 20 29 43 37 36 31 -20 -20 -20 -20 -20 -20 -20 -20 -20 -20 -18 -20 -20 -20 -20 -20 -7 -10 -20 -10 -8 -20 3 -2 21 8 -1 -20
9 18 18 17 -20 1 -20 3 13 15 35 29 21 18 24 30 40 36 12 -20 -20 -20 -20 -20 -20 -20 -20 -20 -13 -19 -20 -20 -20 -20 -20 -20 -12 -20 -20 -20 1 6 -18 6 -13 -20 -19
-20 18 6 1 15 -20 -20 -1 12 19 32 37 21 27 29 24 22 34 10 -20 -20 -20 -20 -20 -20 -20 -19 5 -2 -20 -20 -20 -20 -20 -20 -20 -5 -20 -20 -17 -1 29 20 20 14 12 13
14 17 20 5 6 -20 -20 -6 10 17 11 25 12 16 42 32 17 2 0 2 -20 -20 -14 -20 -11 -7 4 13 7 -3 -20 -20 -20 -20 -20 -20 0 -20 -20 -6 32 20 13 26 28 22 11
-5 -3 9 21 -20 7 -20 -20 10 24 22 21 -9 -19 22 18 27 -16 -11 -6 22 -17 -15 0 8 16 7 18 -4 15 -20 -20 -20 -20 -20 -20 2 3 -9 18 30 32 23 26 23 22 23
14 17 -11 -9 17 8 -20 6 10 30 17 15 -17 23 4 -10 -12 17 -15 6 26 -3 -5 2 8 3 23 14 -17 -20 -20 -20 -20 -20 -20 10 19 24 14 27 29 32 17 30 27 19 28
13 -4 1 -16 -7 -20 -20 10 12 24 29 22 22 28 13 27 9 12 6 7 4 -9 -20 -20 -20 22 26 7 -10 -18 -16 -20 -20 -0 11 29 28 18 10 29 29 31 32 20 6 3 21
-4 16 -10 -3 -8 -20 -20 7 9 14 25 30 33 26 26 32 15 9 -6 0 -5 -20 -9 6 -18 13 13 -17 -10 -14 -20 -20 -19 -2 3 25 24 30 17 29 23 33 29 16 -8 -19 -19
-4 -14 19 -1 12 -20 -20 1 11 17 23 21 26 28 19 3 -5 9 9 7 -5 -9 7 20 15 22 26 -9 2 -19 -20 -20 1 -11 -20 -20 10 29 18 20 19 6 4 25 2 -20 -20
-18 -10 16 15 17 3 -20 -19 9 13 15 0 -2 11 8 -15 -20 -18 5 -20 -0 20 15 21 24 24 22 10 11 -11 -19 -20 -20 -7 -20 -20 -17 26 25 3 -20 -20 -20 -20 13 -5 -20
6 1 4 -4 -2 5 -16 -20 -20 12 13 7 17 29 -7 2 -14 -20 -20 -12 -8 -20 7 26 23 19 17 12 5 24 -20 -20 -20 -20 -7 7 -16 16 2 -9 -17 -20 -20 -20 -20 -20 -20
5 4 12 -10 3 6 0 -20 -9 9 11 3 22 -0 17 -13 -20 -20 -4 -2 -11 -12 27 22 25 30 24 -0 12 -3 -19 -20 -20 -20 -20 -20 -20 -14 -6 -18 -20 -20 -20 -20 -20 -20 -20
2 -6 17 14 -3 5 -19 -20 13 11 17 -1 8 -3 -1 6 -6 -20 -20 -20 -8 21 28 27 23 31 12 -12 -14 -17 -19 -16 -20 -20 -20 -20 -20 -20 -20 -20 -20 -20 -20 -20 -20 -20 -20
Wind_Speed
23 24 24 25 25 25 26 26 23 25 22 19 16 15 16 14 12 11 9 7 5 4 1 4 4 3 1 2 8 3 7 9 3 11 8 7 3 4 4 3 1 4 4 4 4 7 7
22 23 24 25 26 25 25 25 26 23 26 22 19 15 16 16 14 12 10 8 6 4 2 2 2 2 2 3 3 4 3 4 5 6 5 6 5 5 2 3 3 2 3 5 5 5 5
23 22 23 24 25 27 26 26 25 25 23 22 23 18 15 17 15 14 12 9 7 4 3 3 1 2 1 11 2 2 6 2 1 3 5 4 4 3 0 2 2 3 5 6 6 6 7
24 26 25 26 24 24 26 27 26 25 25 23 21 21 15 17 17 15 13 11 9 6 4 3 2 2 7 3 1 2 2 2 1 2 2 3 6 4 2 4 2 2 1 3 4 5 6
25 26 27 27 27 26 24 26 26 26 26 25 22 21 20 16 18 17 14 11 8 6 3 4 2 2 8 4 2 4 5 4 3 3 2 3 4 4 2 1 4 5 8 5 7 2 4
25 26 27 26 28 28 27 27 26 26 26 24 25 19 23 16 19 18 14 9 7 4 1 2 2 2 3 2 2 3 3 6 3 4 3 3 2 4 4 5 6 4 8 10 8 3 4
23 22 22 27 27 28 25 27 27 26 26 23 23 19 19 18 20 19 15 8 4 1 3 7 4 3 1 1 2 2 3 5 4 4 5 2 3 8 10 8 10 4 3 9 4 7 7
23 25 28 24 27 27 26 27 27 27 25 23 23 19 15 20 19 23 10 6 7 6 3 12 9 6 2 2 2 2 6 5 4 5 4 1 11 8 5 4 5 8 13 18 13 12 11
25 27 27 27 29 27 27 26 27 27 26 22 20 22 15 23 17 17 16 5 8 7 2 4 6 7 3 5 4 4 8 4 4 5 7 8 3 7 9 6 5 6 12 8 14 9 12
26 27 26 27 27 28 28 26 26 27 24 25 22 23 20 21 13 14 12 10 6 5 5 5 4 5 5 6 6 8 9 6 2 9 5 9 9 9 5 5 9 14 8 14 13 6 8
25 27 27 27 29 29 30 28 24 27 26 27 27 25 23 14 6 14 13 10 6 7 2 3 5 1 6 10 2 2 3 3 7 7 6 6 4 7 15 13 8 4 7 8 10 8 7
27 27 27 27 28 28 29 28 26 29 31 34 29 24 17 11 5 12 20 14 4 7 8 6 4 6 6 5 1 4 5 3 3 9 12 11 3 3 7 7 14 3 4 4 3 4 13
26 28 27 28 28 29 30 27 29 28 37 26 15 16 9 2 5 18 18 8 6 5 0 7 5 6 6 6 4 4 6 8 5 5 7 4 12 6 4 4 7 8 4 3 5 7 8
25 27 26 27 28 27 28 28 28 30 29 18 4 7 6 5 13 20 12 4 5 6 6 7 6 8 6 7 4 4 4 7 10 6 1 3 6 13 13 17 7 17 11 5 6 5 5
26 27 26 26 28 28 28 29 30 30 26 23 12 1 3 5 14 16 12 3 9 7 7 9 11 6 6 7 3 7 10 5 7 15 7 5 7 2 5 6 9 5 13 14 6 3 4
26 26 27 26 26 27 27 29 29 27 27 18 3 2 4 10 16 12 8 6 3 4 7 6 5 5 6 8 8 7 7 4 7 12 10 2 7 3 3 3 11 8 1 5 6 5 5
26 27 26 26 25 26 26 28 30 29 26 29 3 3 6 10 10 7 6 3 3 3 6 5 4 5 4 6 9 6 5 4 7 5 14 6 5 1 5 9 12 9 9 7 3 5 5
28 27 26 25 24 25 25 27 29 30 25 15 2 3 10 12 7 3 6 6 4 5 2 2 3 5 6 8 7 8 8 6 6 10 11 10 4 7 15 10 16 19 13 17 8 6 5
26 27 25 24 24 24 24 27 29 30 23 6 3 1 11 16 4 4 3 3 4 4 4 3 3 3 6 6 5 8 3 6 8 10 12 9 6 5 5 3 8 11 18 20 19 8 14
26 26 26 24 24 22 24 25 28 31 30 10 3 3 4 3 1 11 8 5 4 2 4 4 2 4 5 6 9 3 5 5 13 12 10 12 5 8 12 10 3 7 16 18 17 11 13
25 26 26 24 22 22 24 25 27 30 31 5 1 2 2 6 3 8 6 9 9 5 2 7 5 12 7 5 6 8 8 4 4 11 8 8 8 12 21 23 18 12 13 21 20 23 13
24 26 25 23 21 22 23 24 27 28 32 1 1 2 4 8 11 8 5 7 11 7 8 5 8 8 11 6 7 8 5 4 6 4 8 5 5 3 18 19 19 25 24 18 21 21 21
23 25 25 22 21 22 22 21 24 25 18 3 4 3 3 11 9 8 7 8 12 9 8 8 12 10 10 15 16 14 2 5 3 2 6 3 3 3 11 6 12 5 11 18 14 12 17
24 24 24 21 20 22 22 21 23 24 20 4 2 3 2 5 9 9 11 8 8 13 6 3 11 6 2 2 1 2 4 9 14 15 12 5 3 3 7 9 4 4 4 5 13 9 16
24 23 23 19 19 20 22 21 23 25 23 6 3 3 1 3 5 8 9 8 6 5 9 11 6 4 2 4 2 3 2 3 7 10 12 14 3 4 4 6 7 5 1 3 5 7 12
25 24 22 19 18 18 20 20 22 25 23 9 4 2 2 2 7 5 9 6 3 4 4 4 0 3 3 2 3 3 3 3 3 2 2 8 10 2 4 5 4 5 5 2 3 6 12
24 23 21 19 17 18 18 20 19 23 22 10 4 3 2 2 1 4 3 4 4 3 1 1 2 3 10 5 3 3 3 3 3 3 3 2 3 4 4 4 8 6 8 4 5 5 3
22 22 20 18 18 18 18 19 19 22 20 12 6 4 2 2 2 1 3 4 3 3 3 2 2 3 3 5 2 3 3 4 2 3 4 6 4 3 2 2 5 4 4 2 3 3 3
21 21 20 17 17 17 18 19 17 20 18 16 3 5 2 1 2 1 2 1 4 7 4 3 1 2 3 3 3 3 2 1 2 4 2 3 6 3 7 7 4 3 3 2 2 2 3
Wind_Direction
356 350 349 345 341 340 338 337 333 334 311 280 271 244 226 220 220 231 234 242 250 249 281 306 336 8 27 206 252 306 4 3 359 147 166 188 140 150 196 220 279 205 232 260 297 301 274
355 351 347 344 340 336 336 336 329 326 336 312 280 266 223 213 209 218 219 228 234 230 247 292 325 102 103 234 252 349 284 13 34 126 155 159 179 192 233 244 186 294 273 262 272 260 279
348 349 342 340 339 339 333 331 327 324 321 322 301 270 235 211 203 205 210 213 213 210 224 248 137 90 209 244 80 358 12 89 12 120 149 161 192 149 128 233 276 271 306 298 218 220 245
350 347 345 339 338 337 330 328 327 325 320 318 324 283 259 217 197 198 203 205 207 179 199 216 128 77 245 245 315 263 140 310 82 198 104 148 166 182 179 307 321 291 255 305 315 227 236
347 345 347 338 337 330 328 326 321 320 321 317 319 320 277 237 198 189 190 197 172 147 210 208 100 138 262 311 188 242 163 169 113 116 126 146 137 179 161 171 285 183 261 255 315 272 260
343 346 340 337 335 332 330 325 324 318 313 317 311 315 314 256 204 184 176 151 128 93 360 232 326 348 259 243 181 129 201 142 120 118 105 121 161 179 162 183 224 241 238 256 257 286 353
341 338 338 336 333 329 327 325 321 317 314 311 309 312 313 276 209 173 139 119 97 340 231 209 194 222 296 298 127 92 148 99 86 78 169 159 175 207 203 220 245 257 266 267 268 292 315
339 343 334 341 330 331 326 325 325 321 318 310 311 311 306 297 222 163 148 169 177 162 211 235 254 266 274 38 45 104 134 123 130 171 122 78 240 222 215 202 227 247 266 266 275 250 260
340 333 337 338 330 328 322 324 321 319 318 317 320 318 299 308 225 152 171 186 137 133 93 270 209 226 178 156 237 208 161 132 143 146 190 203 205 203 185 200 212 217 233 252 256 294 269
334 330 333 329 326 326 326 323 321 327 321 313 307 312 307 307 213 153 167 156 150 115 62 246 202 245 162 154 277 191 170 145 159 190 187 247 242 242 198 203 190 255 198 239 251 251 256
336 332 336 327 325 325 325 320 320 325 322 316 302 299 295 270 158 164 144 147 123 59 23 160 145 55 157 162 155 33 162 179 176 186 159 226 194 208 226 222 173 253 178 212 229 235 274
330 333 332 327 325 326 324 323 331 327 316 304 285 277 276 292 247 136 133 130 95 59 245 165 125 175 152 199 177 124 170 219 2 224 228 242 176 196 208 228 212 197 236 267 274 228 246
333 329 333 326 329 327 324 332 334 326 310 305 280 248 233 261 189 141 130 147 99 186 48 165 167 166 194 163 206 172 173 190 192 199 222 227 231 212 208 201 188 193 167 218 224 210 251
333 331 332 326 327 329 328 328 327 330 331 324 318 226 199 195 161 144 144 108 130 172 185 140 131 142 172 178 212 210 201 220 221 206 285 254 297 195 193 206 179 198 200 222 236 229 256
335 331 332 328 328 330 331 328 334 340 339 336 318 19 156 149 174 147 148 168 184 183 164 144 145 160 195 184 177 196 219 227 223 193 204 219 255 360 204 204 173 165 212 221 265 197 239
334 333 333 332 332 332 332 329 335 342 340 330 314 210 125 190 151 164 161 175 140 163 124 140 135 185 166 164 180 188 189 221 219 190 187 292 285 199 195 166 260 208 258 177 199 228 233
337 335 335 332 332 332 331 331 335 343 341 323 187 164 141 162 138 158 191 114 158 166 118 139 165 149 158 163 195 191 231 271 200 185 174 179 215 313 143 207 199 196 218 218 261 199 197
337 335 334 333 330 329 331 335 336 341 347 330 125 123 162 159 146 182 150 164 133 143 70 108 109 110 171 174 202 208 225 230 159 142 181 197 236 232 234 217 207 215 221 214 214 200 231
336 335 332 333 330 333 330 335 336 338 340 306 144 188 167 148 147 142 155 96 99 129 174 137 132 180 189 202 219 207 206 239 174 168 173 165 224 295 280 257 233 224 226 226 235 259 230
337 336 335 335 334 337 334 337 339 340 341 330 119 111 39 124 278 154 148 139 111 50 142 115 148 174 204 213 210 249 233 261 186 193 184 169 211 220 250 254 200 218 220 216 223 232 237
337 337 335 338 332 341 341 338 339 347 338 335 86 140 179 169 220 166 121 154 176 151 173 179 214 230 211 217 214 222 228 274 193 206 179 179 250 234 254 260 251 239 222 215 217 234 238
342 338 337 336 335 344 344 339 342 352 341 310 79 191 168 149 150 169 142 175 177 185 178 201 227 205 223 221 218 206 223 164 234 145 162 207 272 270 273 269 254 250 240 220 217 223 242
341 339 337 340 336 344 343 342 341 349 352 335 338 269 75 163 153 159 191 178 192 174 192 211 208 218 226 234 235 257 190 276 227 211 216 224 249 269 281 314 292 266 245 225 224 205 207
341 337 340 338 339 343 341 342 342 346 354 312 284 295 156 156 173 188 161 194 204 195 210 235 218 205 211 317 185 242 231 246 257 257 219 215 207 230 284 307 326 285 333 270 213 214 208
334 338 338 343 341 343 341 340 341 345 346 330 277 297 29 123 179 163 158 186 207 205 210 237 205 194 204 338 275 246 223 255 245 230 201 208 194 280 292 313 278 308 160 114 178 237 207
335 333 336 337 338 341 343 337 340 341 348 341 291 258 284 127 196 147 182 175 168 214 174 204 214 137 162 253 255 233 206 219 275 269 262 198 219 240 329 313 337 298 353 193 200 11 178
332 329 334 333 340 334 341 337 336 339 349 343 270 273 268 96 260 118 150 169 145 116 185 148 212 216 181 176 231 199 249 172 257 270 150 180 206 225 253 271 288 279 311 166 44 266 354
334 326 329 332 330 335 341 335 337 338 349 353 279 287 311 44 297 333 151 130 111 148 166 170 179 214 169 158 198 235 193 208 224 233 185 191 185 202 121 275 309 352 334 74 257 296 301
335 327 328 331 330 333 339 332 334 335 349 357 308 342 287 357 293 328 287 194 170 157 159 184 256 278 197 159 191 246 229 132 205 269 13 253 185 201 175 217 248 259 265 313 271 288 309